Location: Amsterdam
(30.7274°N, 84.4357°W)
Time: 16:28:07
(UTC+00:00)

Vanguard 1 Rocket - Pass Details

Date: 16 February 2026
Orbit: 653 x 4214 km, 34.3° (Epoch: 8 March)

Event Time Altitude Azimuth Distance (km) Brightness Sun altitude
Rises 00:49:26 0° 290° (WNW) 6,706 13.0 -18.6°
Reaches altitude 10° 00:53:14 10° 288° (WNW) 6,053 12.6 -19.4°
Maximum altitude 01:14:42 70° 211° (SSW) 4,298 10.7 -24.0°
Enters shadow 01:37:41 15° 134° (SE) 6,567 11.3 -28.9°
